Regional Weather Roundup
Issued by NWS

Home | Current Version | Previous Version | Graphics & Text | Print | Product List | Glossary On
Versions: 1 2 3 4 5 6 7 8 9 10 11 12 13 14 15 16 17 18 19 20 21 22 23 24 25 26 27 28 29 30 31 32 33 34 35 36 37 38 39 40 41 42 43 44 45 46 47 48 49 50
000
ASUS43 KLOT 141208
RWRIL

ILLINOIS REGIONAL WEATHER ROUNDUP
NATIONAL WEATHER SERVICE CHICAGO/ROMEOVILLE IL
600 AM CST THU DEC 14 2017

NOTE: "FAIR" INDICATES FEW OR NO CLOUDS BELOW 12,000 FEET WITH NO
SIGNIFICANT WEATHER AND/OR OBSTRUCTIONS TO VISIBILITY.

* THESE STATIONS ARE NOT UNDER NWS QUALITY CONTROL. THEY ALSO MAY NOT
  REPORT WEATHER SUCH AS PRECIPITATION OR FOG.

ILZ001-002-007-009-015-016-024-141300-
NORTHWEST ILLINOIS

CITY           SKY/WX    TMP DP  RH WIND       PRES   REMARKS
MOLINE         CLOUDY    24  16  71 N3        30.01R
6HR MIN TEMP:  23; 6HR MAX TEMP:  28;

STERLING*        N/A     17  10  74 MISG      30.03R
SAVANNA*       CLOUDY    15  10  77 NE6       30.03S WCI   7
$$

ILZ003-004-008-010-011-017-018-141300-
NORTH CENTRAL ILLINOIS

CITY           SKY/WX    TMP DP  RH WIND       PRES   REMARKS
ROCKFORD       CLEAR     13   7  77 NW6       30.03R WCI   4
6HR MIN TEMP:  13; 6HR MAX TEMP:  23;

FREEPORT*      CLOUDY    12   7  81 W5        30.03R WCI   4
ROCHELLE*      CLEAR     13   9  83 N5        30.01R WCI   6
DE KALB*       CLEAR     14   9  81 NW7       30.00R WCI   3
PERU*          CLEAR     14  10  82 N3        30.02R
$$

ILZ005-006-012>014-019>023-141300-
NORTHEAST ILLINOIS

CITY           SKY/WX    TMP DP  RH WIND       PRES   REMARKS
CHICAGO-OHARE  PTCLDY    17   9  70 NW12      29.97R WCI   4
6HR MIN TEMP:  17; 6HR MAX TEMP:  28; 6HR PCP: TRACE;

CHICAGO-MIDWAY CLOUDY    20  12  71 N13       29.98R WCI   7
6HR MIN TEMP:  20; 6HR MAX TEMP:  29; 6HR PCP: TRACE;

AURORA         PTCLDY    13   9  84 NW7       30.00R WCI   3
6HR MIN TEMP:  13; 6HR MAX TEMP:  26;

LANSING*       FLURRIES  22  17  79 NW7       29.97R WCI  13
JOLIET*        CLEAR     18  13  80 N6        30.00R WCI  10
WAUKEGAN       CLEAR     13   8  81 NW8       29.97R WCI   2
6HR MIN TEMP:  13; 6HR MAX TEMP:  24;

DUPAGE AIRPORT PTCLDY    14  10  84 N7        29.98R WCI   4
6HR MIN TEMP:  14; 6HR MAX TEMP:  26;

KANKAKEE*      CLOUDY    21  15  78 NW9       29.99R WCI  10
WHEELING       CLEAR     16  10  77 NW9       29.99R WCI   4
6HR MIN TEMP:  16; 6HR MAX TEMP:  27; 6HR PCP: TRACE;

MORRIS*        CLEAR     15  10  80 N3        29.99R
ROMEOVILLE*    CLEAR     16  11  83 NW7       29.99R WCI   6
$$

LMZ740>746-141300-
SOUTHERN LAKE MICHIGAN

STATION/POSITION SKY/WX   TEMP    WIND        PRES    VSBY  WAVE
                          AIR SEA DIR/SP/G                  HT/PER
                          (F)     (DEG/KT/KT) (MB)    (MI)  (FT/S)
HARRISON CRIB              21     310/ 15/ 17   N/A
BURNHAM HARBOR             22     290/  7/ 11   N/A
CALUMET HARBOR             21     270/  4/ 11 1014.3R
BURNS HARBOR               25     120/  8/ 11 1014.6R
MICHIGAN CITY              20      80/  9/ 12   N/A
$$

ILZ025>027-034>036-040-047-049-050-058-095>099-141300-
WEST-CENTRAL ILLINOIS

CITY           SKY/WX    TMP DP  RH WIND       PRES   REMARKS
QUINCY         CLOUDY    27  17  66 N8        30.01R WCI  19
GALESBURG*     CLOUDY    24  18  78 N5        30.01R WCI  18
MACOMB*        CLOUDY    26  18  72 N5        30.04R WCI  20
JACKSONVILLE*  CLOUDY    25  16  68 NW6       30.01R WCI  18
PITTSFIELD*    CLOUDY    28  19  67 N6        30.02R WCI  22
$$

ILZ028>032-037-038-041>044-048-051>054-059>061-141300-
CENTRAL ILLINOIS

CITY           SKY/WX    TMP DP  RH WIND       PRES   REMARKS
PONTIAC        PTCLDY    17  14  88 N9        30.00R WCI   6
BLOOMINGTON    PTCLDY    18  15  88 N10       29.99R WCI   6
DECATUR        CLOUDY    25  17  72 N13       29.99R WCI  14
PEORIA         PTCLDY    21  15  78 VRB3      30.01R
6HR MIN TEMP:  21; 6HR MAX TEMP:  29;

LACON*         PTCLDY    19  12  73 N7        30.00S WCI  10
LINCOLN*       PTCLDY    24  18  78 CALM      30.01R
SPRINGFIELD    CLOUDY    26  17  68 N10       30.01R WCI  16
6HR MIN TEMP:  26; 6HR MAX TEMP:  32;

TAYLORVILLE    CLOUDY    27  17  67 N10       30.00R WCI  17
6HR MIN TEMP:  27; 6HR MAX TEMP:  32;

$$

ILZ033-039-045-046-055>057-062-063-141300-
EAST-CENTRAL ILLINOIS

CITY           SKY/WX    TMP DP  RH WIND       PRES   REMARKS
CHAMPAIGN      CLOUDY    26  18  71 N12       29.97R WCI  16
DANVILLE*      FLURRIES  26  20  79 N14       29.93R WCI  14
RANTOUL*       CLOUDY    26  19  76 N12G18    29.96S WCI  15
MATTOON        CLOUDY    27  19  72 N10       29.96R WCI  17
PARIS*         CLOUDY    27  20  75 NW9G17    29.97R WCI  18
$$

ILZ079-100>102-141300-
SOUTHWEST ILLINOIS

CITY           SKY/WX    TMP DP  RH WIND       PRES   REMARKS
ALTON          CLOUDY    29  20  68 N6        30.01R WCI  23
CAHOKIA*       CLOUDY    31  19  61 NE13      30.01R WCI  21
SPARTA*        CLOUDY    31  23  71 N6        30.00R WCI  26
$$

ILZ064>066-069>071-074>076-080>082-084>086-088>090-092>094-141300-
SOUTH-CENTRAL ILLINOIS

CITY           SKY/WX    TMP DP  RH WIND       PRES   REMARKS
CARBONDALE     CLOUDY    34  25  69 N12       29.98R WCI  25
6HR MIN TEMP:  34; 6HR MAX TEMP:  40;

CAIRO*         CLOUDY    36  25  66 N7        29.96R WCI  30
EFFINGHAM*     CLOUDY    28  20  71 NW5       29.99R WCI  23
MARION         CLOUDY    35  25  65 NE8       29.98R WCI  29
MT. VERNON     CLOUDY    30  21  69 N5        29.99R WCI  25
CENTRALIA*     CLOUDY    31  21  66 N9        29.98R WCI  23
SALEM*         CLOUDY    29  19  64 N6        29.99R WCI  23
METROPOLIS*    CLOUDY    37  25  63 N5        29.98R WCI  33
$$

ILZ067-068-072-073-078-083-087-091-141300-
SOUTHEAST ILLINOIS

CITY           SKY/WX    TMP DP  RH WIND       PRES   REMARKS
LAWRENCEVILLE  CLOUDY    28  19  69 NW8       29.97R WCI  20
FLORA*         CLOUDY    30  20  66 N7        29.99R WCI  23
FAIRFIELD*     CLOUDY    29  21  71 N3        29.98R
HARRISBURG*    CLOUDY    33  24  68 N5        29.99R WCI  29
ROBINSON*      CLOUDY    26  19  75 NW7       29.97R WCI  19
CARMI*         CLOUDY    30  22  72 N8        29.98R WCI  22
$$

ABBREVIATIONS USED IN REMARKS
   TC - TEMPERATURE IN CELSIUS
  WCI - WIND CHILL INDEX
   HX - HEAT INDEX
  VSB - VISIBILITY
$$





USA.gov is the U.S. government's official web portal to all federal, state and local government web resources and services.